{"data":{"norad_id":59248,"intl_designator":"2024-049T","name":"STARLINK-31405","alt_names":[],"object_type":"PAYLOAD","status":"ACTIVE","operator":null,"country":"US","launch_date":"2024-03-16","launch_site_code":"AFETR","launch_vehicle":null,"mission":null,"orbit_class":"UNKNOWN","rcs_meters":null,"size_class":null,"mass_kg":null,"dimensions":null,"purposes":["comms"],"wikipedia_slug":null,"has_3d_model":false,"image_url":null,"decayed_at":null,"tle_current":{"epoch":"2026-05-25T04:29:57.772608Z","epoch_age_seconds":62338,"freshness":"FRESH","line1":"1 59248U 24049T   26145.18747422 -.00000217  00000+0  16493-5 0  9998","line2":"2 59248  43.0048  71.6666 0001319 263.0544  97.0157 15.27588818124097","mean_motion":15.27588818,"eccentricity":0.0001319,"inclination_deg":43.0048,"raan_deg":71.6666,"arg_perigee_deg":263.0544,"mean_anomaly_deg":97.0157,"bstar":1.6493e-6,"rev_number":12409,"period_min":94.266204559243,"perigee_km":482.11770493905,"apogee_km":483.92767886577,"semimajor_km":6861.1596919024,"source":"CELESTRAK","updated_at":"2026-05-25T13:38:18.872682Z"}}}